• In Kazakhstan
  • List of Countries
  • For 7 days
  • Water Temperature
  • Weather Map
  • News
  • Weather Widgets
  • user-avatar
    Login

    Hourly Weather La Paz

    Today, 27 January, Monday

    Time Temperature Precipitation Wind Pressure Humidity
    00:00 +8°C° 0 mm 1 mps 474 mmHg 80%
    01:00 +8°C° 0 mm 1 mps 473 mmHg 79%
    02:00 +7°C° 0 mm 1 mps 473 mmHg 79%
    03:00 +7°C° 0 mm 1 mps 472 mmHg 79%
    04:00 +6°C° 0 mm 0 mps 472 mmHg 80%
    05:00 +8°C° 0 mm 1 mps 473 mmHg 77%
    06:00 +9°C° 0 mm 1 mps 474 mmHg 74%
    07:00 +10°C° 0 mm 1 mps 476 mmHg 71%
    08:00 +11°C° 0.3 mm 1 mps 476 mmHg 67%
    09:00 +13°C° 0.3 mm 2 mps 477 mmHg 64%
    10:00 +14°C° 0.3 mm 2 mps 478 mmHg 60%
    11:00 +13°C° 0.8 mm 3 mps 477 mmHg 61%
    12:00 +13°C° 0.8 mm 3 mps 477 mmHg 63%
    13:00 +12°C° 0.8 mm 3 mps 476 mmHg 65%
    14:00 +12°C° 2 mm 3 mps 475 mmHg 69%
    15:00 +11°C° 2 mm 3 mps 475 mmHg 72%
    16:00 +10°C° 2 mm 3 mps 474 mmHg 76%
    17:00 +9°C° 0.2 mm 3 mps 474 mmHg 78%
    18:00 +9°C° 0.2 mm 2 mps 475 mmHg 80%
    19:00 +8°C° 0.2 mm 2 mps 475 mmHg 83%
    20:00 +8°C° 0.3 mm 2 mps 475 mmHg 83%
    21:00 +8°C° 0.3 mm 2 mps 475 mmHg 83%
    22:00 +9°C° 0.3 mm 1 mps 476 mmHg 83%
    23:00 +8°C° 0.1 mm 1 mps 475 mmHg 86%

    Tomorrow, 28 January, Tuesday

    Time Temperature Precipitation Wind Pressure Humidity
    00:00 +8°C° 0.1 mm 1 mps 474 mmHg 89%
    01:00 +7°C° 0.1 mm 1 mps 474 mmHg 92%
    02:00 +7°C° 0.1 mm 1 mps 473 mmHg 92%
    03:00 +6°C° 0.1 mm 0 mps 473 mmHg 92%
    04:00 +6°C° 0.1 mm 0 mps 473 mmHg 92%
    05:00 +7°C° 0.1 mm 0 mps 474 mmHg 88%
    06:00 +8°C° 0.1 mm 1 mps 474 mmHg 85%
    07:00 +9°C° 0.1 mm 1 mps 475 mmHg 81%
    08:00 +10°C° 0.3 mm 1 mps 475 mmHg 77%
    09:00 +10°C° 0.3 mm 2 mps 476 mmHg 73%
    10:00 +12°C° 0.3 mm 2 mps 476 mmHg 69%
    11:00 +12°C° 0.7 mm 2 mps 476 mmHg 69%
    12:00 +12°C° 0.7 mm 2 mps 475 mmHg 70%
    13:00 +13°C° 0.7 mm 2 mps 474 mmHg 70%
    14:00 +13°C° 0.9 mm 2 mps 474 mmHg 69%
    15:00 +13°C° 0.9 mm 2 mps 474 mmHg 68%
    16:00 +13°C° 0.9 mm 2 mps 474 mmHg 67%
    17:00 +12°C° 0.8 mm 2 mps 473 mmHg 73%
    18:00 +10°C° 0.8 mm 2 mps 473 mmHg 79%
    19:00 +9°C° 0.8 mm 3 mps 473 mmHg 85%
    20:00 +8°C° 0.4 mm 2 mps 473 mmHg 85%
    21:00 +8°C° 0.4 mm 2 mps 474 mmHg 85%
    22:00 +8°C° 0.4 mm 1 mps 474 mmHg 85%
    23:00 +8°C° 0.1 mm 1 mps 473 mmHg 82%

    Day after tomorrow, 29 January, Wednesday

    Time Temperature Precipitation Wind Pressure Humidity
    00:00 +8°C° 0.1 mm 1 mps 473 mmHg 80%
    01:00 +7°C° 0.1 mm 1 mps 472 mmHg 77%
    02:00 +7°C° 0 mm 1 mps 472 mmHg 77%
    03:00 +6°C° 0 mm 1 mps 471 mmHg 77%
    04:00 +6°C° 0 mm 1 mps 471 mmHg 77%
    05:00 +7°C° 0 mm 1 mps 472 mmHg 74%
    06:00 +8°C° 0 mm 1 mps 473 mmHg 71%
    07:00 +9°C° 0 mm 1 mps 474 mmHg 69%
    08:00 +10°C° 0 mm 1 mps 475 mmHg 65%
    09:00 +11°C° 0 mm 1 mps 475 mmHg 62%
    10:00 +13°C° 0 mm 1 mps 476 mmHg 59%
    11:00 +13°C° 0.3 mm 1 mps 475 mmHg 59%
    12:00 +13°C° 0.3 mm 1 mps 475 mmHg 60%
    13:00 +14°C° 0.3 mm 1 mps 474 mmHg 60%
    14:00 +13°C° 0.8 mm 2 mps 474 mmHg 62%
    15:00 +13°C° 0.8 mm 2 mps 473 mmHg 65%
    16:00 +13°C° 0.8 mm 2 mps 473 mmHg 67%
    17:00 +11°C° 0.5 mm 3 mps 473 mmHg 73%
    18:00 +10°C° 0.5 mm 3 mps 472 mmHg 80%
    19:00 +8°C° 0.5 mm 3 mps 472 mmHg 86%
    20:00 +8°C° 0.1 mm 3 mps 473 mmHg 88%
    21:00 +8°C° 0.1 mm 3 mps 473 mmHg 89%
    22:00 +7°C° 0.1 mm 2 mps 473 mmHg 91%
    23:00 +7°C° 0.1 mm 2 mps 473 mmHg 91%

    30 January, Thursday

    Time Temperature Precipitation Wind Pressure Humidity
    00:00 +8°C° 0.1 mm 1 mps 472 mmHg 92%
    01:00 +7°C° 0.1 mm 1 mps 472 mmHg 92%
    02:00 +7°C° 0 mm 1 mps 471 mmHg 92%
    03:00 +7°C° 0 mm 1 mps 471 mmHg 92%
    04:00 +7°C° 0 mm 1 mps 471 mmHg 92%
    05:00 +7°C° 0.1 mm 1 mps 472 mmHg 89%
    06:00 +8°C° 0.1 mm 1 mps 473 mmHg 86%
    07:00 +9°C° 0.1 mm 1 mps 473 mmHg 83%
    08:00 +10°C° 0.4 mm 1 mps 474 mmHg 80%
    09:00 +10°C° 0.4 mm 2 mps 475 mmHg 77%
    10:00 +10°C° 0.4 mm 2 mps 475 mmHg 73%
    11:00 +12°C° 0.6 mm 2 mps 475 mmHg 72%
    12:00 +11°C° 0.6 mm 3 mps 474 mmHg 71%
    13:00 +12°C° 0.6 mm 3 mps 474 mmHg 70%
    14:00 +11°C° 0.3 mm 3 mps 474 mmHg 71%
    15:00 +11°C° 0.3 mm 3 mps 473 mmHg 72%
    16:00 +11°C° 0.3 mm 3 mps 473 mmHg 72%
    17:00 +10°C° 0.1 mm 3 mps 473 mmHg 77%
    18:00 +9°C° 0.1 mm 3 mps 473 mmHg 81%
    19:00 +8°C° 0.1 mm 3 mps 473 mmHg 85%
    20:00 +8°C° 0.1 mm 3 mps 473 mmHg 85%
    21:00 +8°C° 0.1 mm 2 mps 474 mmHg 85%
    22:00 +7°C° 0.1 mm 2 mps 474 mmHg 86%
    23:00 +8°C° 0 mm 1 mps 474 mmHg 87%

    31 January, Friday

    Time Temperature Precipitation Wind Pressure Humidity
    00:00 +8°C° 0 mm 1 mps 473 mmHg 89%
    01:00 +7°C° 0 mm 1 mps 473 mmHg 91%
    02:00 +7°C° 0.1 mm 1 mps 472 mmHg 92%
    03:00 +7°C° 0.1 mm 1 mps 472 mmHg 92%
    04:00 +6°C° 0.1 mm 0 mps 472 mmHg 93%
    05:00 +7°C° 0.2 mm 1 mps 473 mmHg 91%
    06:00 +8°C° 0.2 mm 1 mps 474 mmHg 88%
    07:00 +8°C° 0.2 mm 1 mps 474 mmHg 86%
    08:00 +8°C° 0.3 mm 2 mps 475 mmHg 82%
    09:00 +9°C° 0.3 mm 2 mps 476 mmHg 77%
    10:00 +10°C° 0.3 mm 2 mps 476 mmHg 73%
    11:00 +12°C° 0.4 mm 2 mps 476 mmHg 71%
    12:00 +13°C° 0.4 mm 2 mps 476 mmHg 69%
    13:00 +12°C° 0.4 mm 3 mps 476 mmHg 68%
    14:00 +12°C° 0.5 mm 3 mps 475 mmHg 70%
    15:00 +13°C° 0.5 mm 2 mps 474 mmHg 72%
    16:00 +12°C° 0.5 mm 2 mps 474 mmHg 74%
    17:00 +10°C° 0.6 mm 3 mps 474 mmHg 78%
    18:00 +9°C° 0.6 mm 3 mps 473 mmHg 83%
    19:00 +8°C° 0.6 mm 3 mps 473 mmHg 87%
    20:00 +8°C° 0.1 mm 3 mps 474 mmHg 87%
    21:00 +8°C° 0.1 mm 2 mps 474 mmHg 87%
    22:00 +8°C° 0.1 mm 2 mps 475 mmHg 87%
    23:00 +8°C° 0.1 mm 2 mps 474 mmHg 87%

    1 February, Saturday

    Time Temperature Precipitation Wind Pressure Humidity
    00:00 +8°C° 0.1 mm 2 mps 474 mmHg 88%
    01:00 +8°C° 0.1 mm 1 mps 474 mmHg 89%
    02:00 +8°C° 0.1 mm 1 mps 473 mmHg 90%
    03:00 +8°C° 0.1 mm 1 mps 473 mmHg 92%
    04:00 +7°C° 0.1 mm 1 mps 473 mmHg 93%
    05:00 +8°C° 0 mm 1 mps 473 mmHg 91%
    06:00 +8°C° 0 mm 1 mps 474 mmHg 89%
    07:00 +9°C° 0 mm 1 mps 474 mmHg 87%
    08:00 +10°C° 0.2 mm 1 mps 475 mmHg 83%
    09:00 +11°C° 0.2 mm 1 mps 476 mmHg 78%
    10:00 +12°C° 0.2 mm 2 mps 476 mmHg 74%
    11:00 +12°C° 0.8 mm 2 mps 476 mmHg 72%
    12:00 +13°C° 0.8 mm 2 mps 476 mmHg 69%
    13:00 +14°C° 0.8 mm 2 mps 476 mmHg 67%
    14:00 +12°C° 1.2 mm 3 mps 475 mmHg 71%
    15:00 +12°C° 1.2 mm 3 mps 474 mmHg 74%
    16:00 +11°C° 1.2 mm 3 mps 473 mmHg 78%
    17:00 +10°C° 0.5 mm 3 mps 473 mmHg 80%
    18:00 +9°C° 0.5 mm 2 mps 473 mmHg 83%
    19:00 +8°C° 0.5 mm 2 mps 473 mmHg 85%
    20:00 +8°C° 0.1 mm 2 mps 473 mmHg 86%
    21:00 +9°C° 0.1 mm 1 mps 474 mmHg 87%
    22:00 +8°C° 0.1 mm 1 mps 474 mmHg 89%
    23:00 +9°C° 0.1 mm 1 mps 474 mmHg 88%
    Show more